Flag for Germany Weather past 2 weeks in Lage, North Rhine-Westphalia, Germany

Now
56 °F

Clear.


Feels Like: 54 °F
Forecast: 45 / 67 °F
Wind: 7 mph from Northeast

Location: Bad Lippspringe


UV Index: 3 (Moderate)

Visibility: 6 mi


Pressure: 29.95 "Hg

Humidity: 74%

Dew point: 47 °F

Location of LageLocation

Historic Weather in Lage

°F

Lage temperature yesterday

Maximum temperature yesterday: 51 °F (at 3:00 PM)
Minimum temperature yesterday: 41 °F (at 11:00 PM)
Average temperature yesterday: 45 °F

Past Weeks' High & Low Weather Summary

 TemperatureHumidityPressure
High68 °F (Apr 7, 5:00 PM)99% (Apr 6, 8:00 AM)30.47 "Hg (Apr 6, 8:00 AM)
Low28 °F (Apr 16, 7:00 AM)34% (Apr 17, 4:00 PM)29.76 "Hg (Apr 8, 1:00 AM)
Average49 °F76%30.08 "Hg
* Reported Apr 4 9:00 PM — Apr 19 9:00 PM, Lage, Weather by CustomWeather, © 2014

Note: Actual official high and low records may vary slightly from our data, if they occured in-between our weather recording intervals... More about our weather records

Advertising

Historic Weather Conditions — Data for Previous 24 hours

 ConditionsComfort  
Time TempWeatherWind HumidityBarometerVisibility
9:00 PM
Apr 19
55 °FClear.6 mph75%29.96 "Hg6 mi
8:00 PM57 °FPassing clouds.6 mph71%29.97 "Hg7 mi
7:00 PM58 °FPassing clouds.8 mph66%29.97 "Hg7 mi
6:00 PM59 °FSunny.9 mph61%29.96 "Hg9 mi
5:00 PM59 °FPassing clouds.8 mph63%29.98 "Hg9 mi
4:00 PM57 °FSunny.8 mph61%30.00 "Hg9 mi
3:00 PM57 °FSunny.7 mph64%30.04 "Hg9 mi
2:00 PM56 °FSunny.7 mph64%30.06 "Hg10 mi
1:00 PM54 °FPassing clouds.5 mph66%30.08 "Hg17 mi
12:00 PM51 °FPassing clouds.7 mph64%30.09 "Hg11 mi
11:00 AM50 °FPassing clouds.5 mph74%30.10 "Hg13 mi
10:00 AM47 °FPassing clouds.2 mph79%30.10 "Hg14 mi
9:00 AM44 °FSunny.5 mph86%30.10 "Hg14 mi
8:00 AM40 °FPassing clouds.5 mph93%30.09 "Hg9 mi
7:00 AM36 °FFog.1 mph97%30.07 "Hg3 mi
6:00 AM34 °FFog.2 mph97%30.06 "Hg3 mi
5:00 AM35 °FFog.1 mph96%30.04 "Hg4 mi
4:00 AM40 °FOvercast.1 mph96%30.03 "Hg6 mi
3:00 AM40 °FOvercast.1 mph96%30.01 "Hg6 mi
2:00 AM41 °FOvercast.1 mph96%30.00 "Hg7 mi
1:00 AM40 °FLow clouds.1 mph95%30.00 "Hg14 mi
12:00 AM41 °FLight rain. Low clouds.1 mph94%29.98 "Hg12 mi
11:00 PM
Apr 18
41 °FLight rain. Overcast.1 mph93%29.98 "Hg16 mi
10:00 PM41 °FLight freezing rain. Overcast.5 mph89%29.97 "Hg14 mi
Weather by CustomWeather, © 2014

See weather overview